View from above orbital plane
|
View from above satellite
|
Ground track
|
The orbit data is extracted from the following two-line orbital elements,
1 107U 61013A 21102.82799499 .00000297 00000-0 18881-4 0 9990
2 107 28.7905 290.4357 0545938 317.7962 38.1794 14.09173212 8044
Epoch (UTC): | 12 April 2021 19:52:18 |
Eccentricity: | 0.0545938 |
inclination: | 28.7905° |
perigee height: | 467 km |
apogee height: | 1257 km |
right ascension of ascending node: | 290.4357° |
argument of perigee: | 317.7962° |
revolutions per day: | 14.09173212 |
mean anomaly at epoch: | 38.1794° |
orbit number at epoch: | 804 |
The dashed part of the orbit path shows where the satellite is in the earth's shadow,
|
|